Regional Weather Roundup
Issued by NWS Cleveland, OH

Home | Current Version | Previous Version | Text Only | Print | Product List | Glossary Off
Versions: 1 2 3 4 5 6 7 8 9 10 11 12 13 14 15 16 17 18 19 20 21 22 23 24 25 26 27 28 29 30 31 32 33 34 35 36 37 38 39 40 41 42 43 44 45 46 47 48 49 50

000
ASUS41 KCLE 191310
RWRCLE
OHIO REGIONAL WEATHER ROUNDUP
NATIONAL WEATHER SERVICE CLEVELAND, OH
900 AM EDT SUN APR 19 2015

NOTE: "FAIR" INDICATES FEW OR NO CLOUDS BELOW 12,000 FEET WITH NO
SIGNIFICANT WEATHER AND/OR OBSTRUCTIONS TO VISIBILITY.

OHZ001>008-015>018-024>027-034-035-043-044-191400-
   NORTHWEST OHIO

CITY           SKY/WX    TMP DP  RH WIND       PRES   REMARKS
DEFIANCE       CLOUDY    51  33  50 NE10      29.94F
FINDLAY        PTSUNNY   53  34  48 NE13      29.92F
TOLEDO EXPRESS CLOUDY    49  35  58 E17       29.97F
TOLEDO EXEC    PTSUNNY   48  35  60 NE14      29.99F
LIMA           MOSUNNY   57  38  48 E16       29.90F
$$

OHZ009>014-019>023-028>033-038-089-191400-
   NORTHEAST OHIO

CITY           SKY/WX    TMP DP  RH WIND       PRES   REMARKS
CLE-HOPKINS    CLOUDY    55  31  39 E12       30.01F
CLE-LAKEFRONT  PTSUNNY   56  33  42 NE7       29.99F
CUY CO. ARPT   CLOUDY    55  32  41 SE12G21   30.02F
LORAIN-ELYRIA  CLOUDY    52  35  52 E8        29.98F
ASHTABULA      PTSUNNY   54  26  34 SE15G22   30.07F
AKRON-CANTON   CLOUDY    50  39  66 E14       29.99F THUNDER
WOOSTER        PTSUNNY   54  35  48 E15       29.98F
MANSFIELD      MOSUNNY   57  34  41 E12       29.95F
YOUNGSTOWN     PTSUNNY   56  30  37 E16G26    30.04F
$$

OHZ042-051>053-060>062-070>072-077>081-191400-
  SOUTHWEST OHIO

CITY           SKY/WX    TMP DP  RH WIND       PRES   REMARKS
CINC-COVINGTON LGT RAIN  61  47  59 E9        29.82F
CINC-LUNKEN    CLOUDY    61  50  67 NE6       29.83F
HAMILTON       CLOUDY    60  47  61 E7        29.84F
DAYTON         CLOUDY    61  42  49 E13       29.86F
WRIGHT-PAT AFB PTSUNNY   61  42  50 E8        29.85F
DAYTON GENERAL CLOUDY    60  44  55 E12G21    29.83F
WILMINGTON     CLOUDY    58  45  62 E12       29.85F
$$

OHZ036-037-039>041-045>050-054>059-063>069-073>076-082>088-191400-
  CENTRAL AND SOUTHEAST OHIO

CITY           SKY/WX    TMP DP  RH WIND       PRES   REMARKS
COLUMBUS       PTSUNNY   62  42  47 E13G21    29.90F
OSU AIRPORT    PTSUNNY   62  42  47 E12       29.90F
BOLTON FIELD   MOSUNNY   61  45  55 E12       29.90F
RICKENBACK AFB PTSUNNY   60  44  55 E8        29.88F
NEWARK         PTSUNNY   61  41  47 NE3       29.92F
MARION         MOSUNNY   61  37  41 E12       29.93F
LANCASTER      PTSUNNY   62  46  55 SE12      29.91F
ZANESVILLE     PTSUNNY   62  41  46 E10       29.93F
NEW PHILLY     PTSUNNY   60  40  47 E10       29.98F
$$



USA.gov is the U.S. government's official web portal to all federal, state and local government web resources and services.